Location: Chuathbaluk
(61.5726°N, 159.2454°W)
Time: 23:22:34
(UTC+00:00)

Transit 2A - Pass Details

Date: 03 December 2020
Orbit: 598 x 960 km, 66.7° (Epoch: 20 January)

Event Time Altitude Azimuth Distance (km) Brightness Sun altitude
Rises 11:49:24 0° 309° (NW) 3,363 - -48.1°
Reaches altitude 10° 11:52:16 10° 298° (WNW) 2,361 - -48.0°
Maximum altitude 11:56:40 26° 243° (WSW) 1,420 - -47.7°
Drops below altitude 10° 12:00:44 10° 187° (S) 2,153 - -47.5°
Sets 12:03:14 0° 175° (S) 3,010 - -47.3°
